Weather History for KOXC - March, 2012

Change the Weather History Date:

Monday, March 26, 2012

  Actual Average (WUND) Record (WUND)
Temperature  
Mean Temperature 39 °F -  
Max Temperature 48 °F - - (-1)
Min Temperature 30 °F - - (-1)
Degree Days  
Heating Degree Days 26    
Moisture  
Dew Point 23 °F    
Average Humidity 56    
Maximum Humidity 93    
Minimum Humidity 25    
Precipitation  
Precipitation 0.00 in - - ()
Sea Level Pressure  
Sea Level Pressure 29.82 in    
Wind  
Wind Speed 7 mph (NNW)    
Max Wind Speed 29 mph    
Max Gust Speed 46 mph    
Visibility 10 miles    
Events      
Averages and records for this station are not official NWS values.
T = Trace of Precipitation, MM = Missing Value Source: NWS Daily Summary

Daily Weather History Graph

Daily Weather History Graph

Search for Another Location

Airport or City:

Trip Planner

Search our weather history database for the weather conditions in past years. The results will help you decide how hot, cold, wet, or windy it might be!

Date:

Astronomy

Mar. 26, 2012 Rise Set
Actual Time 6:44 AM EDT 7:11 PM EDT
Civil Twilight 6:17 AM EDT 7:39 PM EDT
Nautical Twilight 5:44 AM EDT 8:12 PM EDT
Astronomical Twilight 5:11 AM EDT 8:45 PM EDT
Moon 8:29 AM EDT (3/26) 11:23 PM EDT (3/26)
Length of Visible Light 13h 22m
Length of Day
12h 26m
Waxing Crescent, 14% of the Moon is Illuminated
Mar 26
Waxing Crescent
Mar 30
First Quarter
Apr 6
Full
Apr 13
Last Quarter
Apr 21
New

Hourly Weather History & Observations

Time (EDT) Temp. Windchill Dew Point Humidity Pressure Visibility Wind Dir Wind Speed Gust Speed Precip Events Conditions
12:15 AM 42.8 °F - 35.6 °F 76% 29.74 in 10.0 mi Calm Calm - N/A   Clear
12:55 AM 42.8 °F - 37.4 °F 81% 29.74 in 10.0 mi Calm Calm - N/A   Overcast
1:15 AM 44.6 °F - 37.4 °F 76% 29.74 in 10.0 mi Calm Calm - N/A   Overcast
1:35 AM 44.6 °F - 39.2 °F 81% 29.73 in 10.0 mi Calm Calm - N/A   Overcast
1:55 AM 44.6 °F - 39.2 °F 81% 29.73 in 10.0 mi Calm Calm - N/A   Overcast
2:15 AM 42.8 °F - 37.4 °F 81% 29.72 in 10.0 mi Calm Calm - N/A   Scattered Clouds
2:35 AM 42.8 °F - 37.4 °F 81% 29.72 in 10.0 mi Calm Calm - N/A   Clear
2:55 AM 41.0 °F - 35.6 °F 81% 29.71 in 10.0 mi Calm Calm - N/A   Clear
3:35 AM 39.2 °F - 37.4 °F 93% 29.70 in 10.0 mi Calm Calm - N/A   Clear
3:55 AM 41.0 °F - 35.6 °F 81% 29.70 in 10.0 mi Calm Calm - N/A   Clear
4:15 AM 39.2 °F 35.9 °F 35.6 °F 87% 29.69 in 10.0 mi NNW 4.6 mph - N/A   Clear
4:35 AM 39.2 °F 35.9 °F 35.6 °F 87% 29.69 in 10.0 mi North 4.6 mph - N/A   Clear
4:55 AM 37.4 °F 32.8 °F 35.6 °F 93% 29.69 in 10.0 mi North 5.8 mph - N/A   Clear
5:15 AM 39.2 °F - 35.6 °F 87% 29.69 in 10.0 mi Calm Calm - N/A   Clear
5:55 AM 42.8 °F - 37.4 °F 81% 29.69 in 10.0 mi Calm Calm - N/A   Clear
6:45 AM 41.0 °F - 37.4 °F 87% 29.71 in 10.0 mi Calm Calm - N/A   Partly Cloudy
7:45 AM 44.6 °F 41.4 °F 41.0 °F 87% 29.72 in 10.0 mi North 5.8 mph - N/A   Mostly Cloudy
8:45 AM 48.2 °F - 37.4 °F 66% 29.74 in 10.0 mi North 20.7 mph 31.1 mph N/A   Mostly Cloudy
9:45 AM 46.4 °F 39.0 °F 30.2 °F 53% 29.77 in 10.0 mi NNW 19.6 mph 35.7 mph N/A   Mostly Cloudy
10:30 AM 46.4 °F 37.4 °F 26.6 °F 46% 29.78 in 10.0 mi North 28.8 mph 46.0 mph N/A   Partly Cloudy
10:45 AM 46.4 °F 37.9 °F 24.8 °F 43% 29.78 in 10.0 mi NNW 25.3 mph 46.0 mph N/A   Partly Cloudy
11:45 AM 44.6 °F 36.4 °F 21.2 °F 39% 29.81 in 10.0 mi NNW 20.7 mph 33.4 mph N/A   Partly Cloudy
12:45 PM 44.6 °F 35.1 °F 15.8 °F 31% 29.81 in 10.0 mi North 27.6 mph 36.8 mph N/A   Partly Cloudy
1:50 PM 44.6 °F 35.9 °F 14.0 °F 29% 29.82 in 10.0 mi North 23.0 mph 40.3 mph N/A   Partly Cloudy
2:45 PM 44.6 °F 36.6 °F 14.0 °F 29% 29.82 in 10.0 mi NNW 19.6 mph 32.2 mph N/A   Partly Cloudy
3:45 PM 42.8 °F 34.0 °F 14.0 °F 31% 29.84 in 10.0 mi NNW 20.7 mph 31.1 mph N/A   Partly Cloudy
4:45 PM 41.0 °F 32.8 °F 12.2 °F 31% 29.86 in 10.0 mi NNW 16.1 mph 29.9 mph N/A   Partly Cloudy
5:45 PM 39.2 °F 30.2 °F 10.4 °F 31% 29.89 in 10.0 mi NNW 17.3 mph 26.5 mph N/A   Partly Cloudy
6:45 PM 37.4 °F 27.8 °F 8.6 °F 30% 29.92 in 10.0 mi NNW 17.3 mph 28.8 mph N/A   Clear
7:45 PM 35.6 °F 26.2 °F 5.0 °F 28% 29.96 in 10.0 mi NNW 15.0 mph 26.5 mph N/A   Clear
8:45 PM 33.8 °F 24.8 °F 3.2 °F 28% 30.01 in 10.0 mi NNW 12.7 mph 31.1 mph N/A   Clear
8:55 PM 33.8 °F 24.3 °F 3.2 °F 28% 30.02 in 10.0 mi NNW 13.8 mph 29.9 mph N/A   Clear
9:15 PM 33.8 °F 22.5 °F 1.4 °F 25% 30.03 in 10.0 mi NNW 19.6 mph 29.9 mph N/A   Clear
9:35 PM 33.8 °F 23.5 °F 1.4 °F 25% 30.04 in 10.0 mi NNW 16.1 mph 28.8 mph N/A   Clear
9:55 PM 32.0 °F 22.5 °F 1.4 °F 27% 30.05 in 10.0 mi NNW 12.7 mph 25.3 mph N/A   Clear
10:35 PM 30.2 °F 20.8 °F 1.4 °F 29% 30.06 in 10.0 mi NW 11.5 mph 25.3 mph N/A   Clear
10:55 PM 30.2 °F 18.5 °F 1.4 °F 29% 30.06 in 10.0 mi NNW 17.3 mph 25.3 mph N/A   Clear
11:55 PM 30.2 °F 18.5 °F 1.4 °F 29% 30.08 in 10.0 mi NNW 17.3 mph 27.6 mph N/A   Clear